This demonstration page uses our WeatherBlox Daily Observations layout. Learn more.

Left ArrowRight Arrow

Hourly Observations for February 23, 2019

Temp ( °F °C ) Dew Point ( °F °C ) Humidity (%) Winds ( mph kmh ) Pressure ( in mb ) Visibility ( mi km ) Precip ( " mm )
12:53 am 00:53 Cloudy 38 3.3 30 -1.1 73 73 ENE 5 7 30.27 1025 8 13 N/A
1:53 am 01:53 Cloudy 38 3.3 30 -1.1 73 73 ENE 3 6 30.25 1024 9 14 N/A
2:53 am 02:53 Cloudy 39 3.9 31 -0.6 73 73 ENE 6 9 30.22 1023 9 14 N/A
3:53 am 03:53 Partly Cloudy 38 3.3 30 -1.1 73 73 ENE 6 9 30.18 1022 10 16 N/A
4:53 am 04:53 Clear 38 3.3 30 -1.1 73 73 ENE 6 9 30.16 1021 10 16 N/A
5:53 am 05:53 Cloudy 38 3.3 30 -1.1 73 73 ENE 3 6 30.16 1022 10 16 N/A
6:32 am 06:32 Cloudy 39 3.9 31 -0.6 73 73 E 5 7 30.16 1021 10 16 N/A
6:53 am 06:53 Cloudy 39 3.9 31 -0.6 73 73 E 5 7 30.14 1021 10 16 N/A
7:53 am 07:53 Cloudy 40 4.4 32 undefined 73 73 E 6 9 30.11 1020 10 16 N/A
8:53 am 08:53 Cloudy 41 5 33 0.6 73 73 E 5 7 30.12 1020 10 16 N/A
9:53 am 09:53 Cloudy 42 5.6 34 1.1 73 73 E 6 9 30.08 1019 10 16 N/A
10:53 am 10:53 Cloudy 44 6.7 36 2.2 73 73 ESE 7 11 30.06 1018 10 16 N/A
11:53 am 11:53 Cloudy 46 7.8 38 3.3 73 73 VRB 3 6 30.04 1017 10 16 N/A
12:53 pm 12:53 Cloudy 48 8.9 41 5 77 77 ESE 5 7 30.01 1016 10 16 N/A
1:53 pm 13:53 Cloudy 49 9.4 43 6.1 80 80 ESE 7 11 29.95 1014 10 16 N/A
2:53 pm 14:53 Cloudy 50 10 45 7.2 83 83 VRB 3 6 29.92 1013 10 16 N/A
3:53 pm 15:53 Cloudy 51 10.6 46 7.8 83 83 E 5 7 29.90 1012 10 16 N/A
4:53 pm 16:53 Cloudy 52 11.1 47 8.3 83 83 ESE 3 6 29.87 1012 10 16 N/A
5:15 pm 17:15 Cloudy 51 10.6 47 8.3 86 86 N N/A 29.88 1012 10 16 N/A
5:53 pm 17:53 Cloudy 53 11.7 48 8.9 83 83 ESE 5 7 29.86 1011 10 16 N/A
6:53 pm 18:53 Cloudy with Rain 50 10 48 8.9 93 93 N N/A 29.85 1011 5 8 0.05 1.27
7:12 pm 19:12 Cloudy with Rain 51 10.6 49 9.4 92 92 ESE 5 7 29.84 1010 4 6 0.05 1.27
7:32 pm 19:32 Cloudy with Light Rain 51 10.6 49 9.4 92 92 ESE 12 19 29.76 1008 6 10 0.07 1.78
7:53 pm 19:53 Mostly Cloudy 53 11.7 51 10.6 93 93 VRB 5 7 29.75 1007 10 16 0.08 2.03
8:53 pm 20:53 Cloudy 55 12.8 53 11.7 93 93 VRB 7 11 29.69 1005 10 16 N/A
9:53 pm 21:53 Cloudy with Light Rain 55 12.8 53 11.7 93 93 S 5 7 29.67 1005 10 16 0.04 1.02
10:29 pm 22:29 Cloudy with Light Rain 55 12.8 53 11.7 93 93 VRB 6 9 29.64 1004 8 13 0.03 0.76
10:53 pm 22:53 Cloudy with Light Rain 56 13.3 54 12.2 93 93 S 8 13 29.64 1004 10 16 0.04 1.02
11:30 pm 23:30 Cloudy with Rain 57 13.9 55 12.8 93 93 S 12 19 29.60 1002 5 8 0.02 0.51
11:53 pm 23:53 Cloudy with Light Rain 57 13.9 55 12.8 93 93 SSE 14 22 29.57 1001 10 16 0.04 1.02

Powered by AerisWeather